Photometre #253[Standard_N] Modena AOT

File : 20220923_253.hum

23/09/2022,05:54:30,TEMP=9.8,BA=5.36,STAT.A
23/09/2022,05:54:41,TEMP=9.8,BA=5.36,STAT.s
23/09/2022,05:58:07,TEMP=10.1,BA=5.36,STAT.A
23/09/2022,05:58:18,TEMP=10.1,BA=5.36,STAT.s
23/09/2022,06:02:20,TEMP=10.5,BA=5.36,STAT.A
23/09/2022,06:07:22,TEMP=10.9,BA=5.36,STAT.A
23/09/2022,06:13:25,TEMP=11.4,BA=5.40,STAT.A
23/09/2022,06:20:54,TEMP=12.0,BA=5.40,STAT.A
23/09/2022,06:30:23,TEMP=12.9,BA=5.44,STAT.B
23/09/2022,06:37:42,TEMP=13.7,BA=5.44,STAT.A
23/09/2022,06:39:59,TEMP=13.8,BA=5.44,STAT.A
23/09/2022,06:45:43,TEMP=14.1,BA=5.36,STAT.A
23/09/2022,06:52:14,TEMP=14.3,BA=5.48,STAT.A
23/09/2022,06:59:45,TEMP=14.9,BA=5.48,STAT.C
23/09/2022,07:11:00,TEMP=15.7,BA=5.48,STAT.A
23/09/2022,07:18:49,TEMP=16.1,BA=5.48,STAT.A
23/09/2022,07:31:15,TEMP=16.9,BA=5.52,STAT.A
23/09/2022,07:46:37,TEMP=18.0,BA=5.52,STAT.A
23/09/2022,08:06:15,TEMP=19.3,BA=5.52,STAT.B
23/09/2022,08:13:35,TEMP=20.0,BA=5.52,STAT.F
23/09/2022,08:25:04,TEMP=20.2,BA=5.52,STAT.D
23/09/2022,08:39:18,TEMP=21.0,BA=5.44,STAT.D
23/09/2022,08:54:18,TEMP=21.1,BA=5.52,STAT.D
23/09/2022,09:09:18,TEMP=21.3,BA=5.52,STAT.F
23/09/2022,09:24:18,TEMP=22.0,BA=5.52,STAT.D
23/09/2022,09:39:18,TEMP=22.4,BA=5.48,STAT.D
23/09/2022,09:54:18,TEMP=22.3,BA=5.52,STAT.D
23/09/2022,10:09:18,TEMP=22.5,BA=5.52,STAT.F
23/09/2022,10:24:18,TEMP=23.0,BA=5.52,STAT.D
23/09/2022,10:39:18,TEMP=23.3,BA=5.52,STAT.D
23/09/2022,10:54:18,TEMP=23.5,BA=5.52,STAT.D
23/09/2022,11:09:18,TEMP=24.1,BA=5.52,STAT.E
23/09/2022,11:24:18,TEMP=24.3,BA=5.52,STAT.D
23/09/2022,11:39:18,TEMP=24.9,BA=5.48,STAT.D
23/09/2022,11:54:18,TEMP=24.5,BA=5.48,STAT.D
23/09/2022,12:09:18,TEMP=24.7,BA=5.48,STAT.F
23/09/2022,12:24:18,TEMP=25.0,BA=5.48,STAT.D
23/09/2022,12:39:18,TEMP=25.5,BA=5.48,STAT.D
23/09/2022,12:54:18,TEMP=26.1,BA=5.48,STAT.D
23/09/2022,13:09:18,TEMP=26.1,BA=5.48,STAT.F
23/09/2022,13:24:18,TEMP=26.2,BA=5.48,STAT.D
23/09/2022,13:39:18,TEMP=26.7,BA=5.44,STAT.D
23/09/2022,13:54:17,TEMP=27.1,BA=5.52,STAT.D
23/09/2022,14:09:17,TEMP=26.7,BA=5.48,STAT.F
23/09/2022,14:15:29,TEMP=26.4,BA=5.48,STAT.s
23/09/2022,14:16:02,TEMP=26.4,BA=5.48,STAT.B
23/09/2022,14:17:05,TEMP=26.3,BA=5.48,STAT.s
23/09/2022,14:31:58,TEMP=25.3,BA=5.44,STAT.A
23/09/2022,14:47:20,TEMP=25.2,BA=5.44,STAT.A
23/09/2022,14:59:46,TEMP=24.6,BA=5.44,STAT.A
23/09/2022,15:10:06,TEMP=24.0,BA=5.44,STAT.A
23/09/2022,15:10:46,TEMP=24.0,BA=5.44,STAT.s
23/09/2022,15:18:50,TEMP=23.5,BA=5.44,STAT.C
23/09/2022,15:19:29,TEMP=23.5,BA=5.44,STAT.s
23/09/2022,15:26:20,TEMP=23.3,BA=5.40,STAT.A
23/09/2022,15:27:00,TEMP=23.3,BA=5.40,STAT.s
23/09/2022,15:32:52,TEMP=23.3,BA=5.44,STAT.A
23/09/2022,15:33:03,TEMP=23.3,BA=5.44,STAT.s
23/09/2022,15:38:36,TEMP=23.3,BA=5.44,STAT.A
23/09/2022,15:38:47,TEMP=23.3,BA=5.44,STAT.s
23/09/2022,15:43:40,TEMP=23.4,BA=5.44,STAT.A
23/09/2022,15:44:21,TEMP=23.4,BA=5.44,STAT.s
23/09/2022,15:48:12,TEMP=23.5,BA=5.44,STAT.B
23/09/2022,15:48:23,TEMP=23.5,BA=5.44,STAT.s
23/09/2022,15:57:41,TEMP=23.7,BA=5.48,STAT.A
23/09/2022,15:57:52,TEMP=23.7,BA=5.48,STAT.s
23/09/2022,16:05:09,TEMP=23.6,BA=5.48,STAT.A
23/09/2022,16:11:13,TEMP=23.5,BA=5.48,STAT.A
23/09/2022,16:11:34,TEMP=23.5,BA=5.48,STAT.s
23/09/2022,16:16:15,TEMP=23.3,BA=5.48,STAT.A
23/09/2022,16:16:26,TEMP=23.3,BA=5.48,STAT.s
23/09/2022,16:20:29,TEMP=23.2,BA=5.48,STAT.A
23/09/2022,16:20:40,TEMP=23.2,BA=5.48,STAT.s
23/09/2022,16:24:05,TEMP=23.2,BA=5.48,STAT.A
23/09/2022,16:24:16,TEMP=23.2,BA=5.48,STAT.s